EUTELSAT 16A

Last updated on Sun Apr 12 2026 00:02:52 GMT+0000 (Coordinated Universal Time)

1 37836U 11057A 26101.52381073 .00000105 00000+0 00000+0 0 9994 2 37836 0.0568 5.2857 0005594 18.7666 20.2530 1.00270205 6669
UTC large
Height (km)
Speed (km/s)
/
Latitude / Longitude
Inclination (degrees)
Orbital Period (minutes)
Azimuth
Elevation
Range (km)
Doppler Factor

Next 0 passes for location: London (51.5072 / 0.1276)

Sorry there are no passes over London.
EUTELSAT 16A